118  
ASUS43 KARX 240010  
RWRARX  
 
HOURLY WEATHER FOR THE UPPER MISSISSIPPI RIVER VALLEY  
NATIONAL WEATHER SERVICE LA CROSSE WI  
700 PM CDT SAT OCT 23 2021  
 
NOTE: "FAIR" INDICATES FEW OR NO CLOUDS BELOW 12,000 FEET WITH NO  
SIGNIFICANT WEATER AND/OR S TO VISIBILITY
.  
 
MNZ077-085>088-093>096-240100  
SOUTHEAST MINNESOTA  
 
CITY SKY/WX TMP DP RH WIND PRES REMARKS
 
ROCHESTER CLEAR 41 29 62 E7 30.00S  
WINONA CLEAR 43 34 70 CALM 30.02S  
AUSTIN CLEAR 45 32 61 E6 29.98F  
ALBERT LEA CLEAR 43 32 65 E6 29.97F  
DODGE CENTER N/A 39 28 65 E5 29.99S  
PRESTON CLEAR 46 31 56 E5 30.01R  
OWATONNA CLEAR 43 32 65 E5 29.99S  
FARIBAULT CLEAR 41 34 75 CALM 30.00S  

 
 
WIZ041-042-053>056-061-240100  
SOUTHWEST WISCONSIN  
 
CITY SKY/WX TMP DP RH WIND PRES REMARKS
 
LA CROSSE CLEAR 45 33 63 CALM 30.01S  
SPARTA CLEAR 35 31 85 CALM 30.03R  
VIROQUA CLEAR 43 33 67 N3 30.00S  
WIS DELLS CLEAR 42 32 66 CALM 30.01S  
PRAIRIE DU CHI CLEAR 47 34 60 NE3 30.00S  
BOSCOBEL CLEAR 42 35 76 CALM 30.02R  
LONE ROCK CLEAR 42 33 70 NE3 30.01S  
PLATTEVILLE NOT AVBL  

 
 
WIZ017-030-034>036-043>045-240100  
CENTRAL WISCONSIN  
 
CITY SKY/WX TMP DP RH WIND PRES REMARKS
 
MEDFORD CLOUDY 43 29 57 CALM 30.01R  
WAUSAU CLEAR 44 31 60 W3 30.00S  
BLACK RVR FLS CLEAR 33 30 89 CALM 30.02R  
WIS RAPIDS CLEAR 38 32 79 CALM 30.02S  
MARSHFIELD CLEAR 41 30 65 N3 30.01S  
MAUSTON FAIR 39 33 78 CALM 30.00F  
CAMP DOUGLAS CLEAR 36 28 74 CALM 30.02R  
WAUTOMA CLEAR 39 34 82 CALM 30.03R  

 
 
IAZ008>011-017>019-029-030-240100  
NORTHEAST IOWA  
 
CITY SKY/WX TMP DP RH WIND PRES REMARKS
 
WATERLOO PTCLDY 42 31 64 E8 29.97S  
DUBUQUE CLEAR 44 31 60 NE3 30.00S  
DECORAH MOCLDY 45 32 61 E6 29.99S  
MASON CITY PTCLDY 41 28 60 E8 29.97F  
CHARLES CITY CLEAR 45 32 61 E8 29.98R  
OELWEIN PTCLDY 43 32 65 E6 29.99S  

 
 
WIND SPEEDS ARE IN MILES PER HOUR.  
 
ABBREVIATIONS USED IN THE REMARKS:  
VSB - VISIBILITY IN STATUTE MILES  
WCI - WIND CHILL INDEX  
HX - HEAT INDEX  
 
 
CLICK HERE TO GO TO PREVIOUS BULLETINS.

The Nexlab WI Page
The Nexlab IA Page
The Nexlab MN Page Main Text Page